DMSP 5D-2 F11 DEB, 35532

Orbit data source: Space-Track

DMSP 5D-2 F11 DEB, 35532 is space debris in SSO originally from a launch on Thu, 28 Nov 1991 UTC launched from the Air Force Western Test Range (AFWTR). Debris objects in space refer to the collection of defunct objects orbiting the Earth. Examples of debris include non-operational satellites, rocket bodies, and fragments generated from explosions, collisions, or faulty payload assembly.

Loading next visibility...
Identifier
35532, 1991-082CP
Orbit
SSO
Country
Flag of USUS
Related business
Manufacturer
Unknown
Mission
Spacecraft
Bus & Motor
Unknown
Mass
Unknown
Launch date (UTC)
1991-11-28 (34 years ago)
Launch vehicle
Unknown
Launch site
Air Force Western Test Range (AFWTR)
Object type
Payload
Rocket body
Debris
Shape & HBR
Unknown shape, 0.1 m
Radar Cross Section
Small (<0.1 m²)

Expand to show TLE details & history
Last TLE update: 22 hours ago

TLE from 22 hours ago
0 DMSP 5D-2 F11 DEB
1 35532U 91082CP  25348.69583456  .00020294  00000-0  49558-2 0  9996
2 35532  98.7031 135.6019 0074519 229.0966 130.3759 14.50934946640286
Epoch: 2025-12-14T16:42Z
TLE epoch observation values (Epoch: 2025-12-14T16:42:00.105Z)
Latitude
0.00004°
Longitude
161.4964°
Altitude
760.065 km
Speed
7.456 km/s
True Right ascension
09h 02m 24s
True Declination
0° 00' 00"
Sunlit
Object was in full shadow at epoch
Visualization orbit readout
Latitude
Unknown
Longitude
Unknown
Altitude
Unknown
Speed
Unknown
Apparent Right ascension
Unknown
Apparent Declination
Unknown
Sunlit
N/A
Visualization observer readout
Local Sidereal Time
13:18:21
Azimuth
Unknown
Elevation
Unknown
Doppler factor
Unknown
Orbital elements
Apogee altitude
772.606 km
Perigee altitude
666.821 km
Semi-major axis
7,097.85 km
Eccentricity
0.00745
Inclination
98.7031°
RAAN
135.6019°
Arg. of periapsis
229.0966°
True anomaly
131.02251°
Mean anomaly
130.3759°
Eccentric anomaly
130.6996°
Mean motion
3.62955 °/min
Orbital period
99.19 mins
BSTAR
0.0049558
Loading maneuver chart data...
Computing Atmospheric mass density...

Documentation

Showing up to 5 results
|